timestamp,surface_pressure_avg,surface_temp_avg,battery_voltage,lat,long
2023-08-27 00:09:00+00:00,241.8547,19.05,12.33,47.84626,-54.09684
2023-08-27 00:19:00+00:00,236.9147,19.1,12.33,47.84626,-54.09684
2023-08-27 00:29:00+00:00,235.1897,19.2,12.33,47.84626,-54.09684
2023-08-27 00:39:00+00:00,234.6531,19.2,12.33,47.84626,-54.09684
2023-08-27 00:49:00+00:00,230.6731,19.2,12.33,47.84626,-54.09684
2023-08-27 00:59:00+00:00,227.5314,19.21,12.33,47.84626,-54.09684
2023-08-27 01:09:00+00:00,226.5547,19.2,12.33,47.84626,-54.09684
2023-08-27 01:19:00+00:00,228.0931,19.22,12.33,47.84626,-54.09684
2023-08-27 01:29:00+00:00,226.4264,19.21,12.33,47.84626,-54.09684
2023-08-27 01:39:00+00:00,222.4298,19.26,12.33,47.84626,-54.09684
2023-08-27 01:49:00+00:00,220.2681,19.3,12.33,47.84626,-54.09684
2023-08-27 01:59:00+00:00,223.0098,19.3,12.33,47.84626,-54.09684
2023-08-27 02:09:00+00:00,225.7215,19.3,12.33,47.84626,-54.09684
2023-08-27 02:19:00+00:00,221.7214,19.3,12.33,47.84626,-54.09684
2023-08-27 02:29:00+00:00,222.7814,19.3,12.33,47.84626,-54.09684
2023-08-27 02:39:00+00:00,226.5615,19.3,12.33,47.84626,-54.09684
2023-08-27 02:49:00+00:00,225.1964,19.35,12.33,47.84626,-54.09684
2023-08-27 02:59:00+00:00,224.0381,19.3,12.33,47.84626,-54.09684
2023-08-27 03:09:00+00:00,227.1198,19.3,12.33,47.84626,-54.09684
2023-08-27 03:19:00+00:00,226.6331,19.3,12.33,47.84626,-54.09684
2023-08-27 03:29:00+00:00,222.6381,19.3,12.33,47.84626,-54.09684
2023-08-27 03:39:00+00:00,225.6331,19.3,12.33,47.84626,-54.09684
2023-08-27 03:49:00+00:00,228.8297,19.3,12.33,47.84626,-54.09684
2023-08-27 03:59:00+00:00,228.9664,19.3,12.33,47.84626,-54.09684
2023-08-27 04:09:00+00:00,227.9297,19.3,12.33,47.84626,-54.09684
2023-08-27 04:19:00+00:00,231.8914,19.3,12.25,47.84626,-54.09684
2023-08-27 04:29:00+00:00,235.7115,19.3,12.25,47.84626,-54.09684
2023-08-27 04:39:00+00:00,239.5098,19.3,12.25,47.84626,-54.09684
2023-08-27 04:49:00+00:00,243.3048,19.3,12.25,47.84626,-54.09684
2023-08-27 04:59:00+00:00,249.8981,19.3,12.25,47.84626,-54.09684
2023-08-27 05:09:00+00:00,256.808,19.3,12.25,47.84626,-54.09684
2023-08-27 05:19:00+00:00,259.0297,19.29,12.25,47.84626,-54.09684
2023-08-27 05:29:00+00:00,260.0265,19.28,12.25,47.84626,-54.09684
2023-08-27 05:39:00+00:00,264.2814,19.28,12.25,47.84626,-54.09684
2023-08-27 05:49:00+00:00,270.8647,19.28,12.25,47.84626,-54.09684
2023-08-27 05:59:00+00:00,274.7797,19.26,12.25,47.84626,-54.09684
2023-08-27 06:09:00+00:00,278.0064,19.2,12.25,47.84626,-54.09684
2023-08-27 06:19:00+00:00,284.8647,19.2,12.25,47.84626,-54.09684
2023-08-27 06:29:00+00:00,289.783,19.2,12.25,47.84626,-54.09684
2023-08-27 06:39:00+00:00,292.198,19.2,12.25,47.84626,-54.09684
2023-08-27 06:49:00+00:00,293.2813,19.2,12.25,47.84626,-54.09684
2023-08-27 06:59:00+00:00,292.2997,19.2,12.25,47.84626,-54.09684
2023-08-27 07:09:00+00:00,291.0563,19.19,12.25,47.84626,-54.09684
2023-08-27 07:19:00+00:00,293.7563,19.2,12.25,47.84626,-54.09684
2023-08-27 07:29:00+00:00,293.8697,19.2,12.25,47.84626,-54.09684
2023-08-27 07:39:00+00:00,293.2913,19.2,12.25,47.84626,-54.09684
2023-08-27 07:49:00+00:00,296.0797,19.19,12.25,47.84626,-54.09684
2023-08-27 07:59:00+00:00,300.5964,19.2,12.25,47.84626,-54.09684
2023-08-27 08:09:00+00:00,299.6146,19.2,12.25,47.84626,-54.09684
2023-08-27 08:19:00+00:00,300.4513,19.19,12.25,47.84626,-54.09684
2023-08-27 08:29:00+00:00,301.9963,19.17,12.25,47.84626,-54.09684
2023-08-27 08:39:00+00:00,300.7814,19.14,12.25,47.84626,-54.09684
2023-08-27 08:49:00+00:00,293.778,19.1,12.25,47.84626,-54.09684
2023-08-27 08:59:00+00:00,289.8881,19.1,12.25,47.84626,-54.09684
2023-08-27 09:09:00+00:00,288.2697,19.1,12.25,47.84626,-54.09684
2023-08-27 09:19:00+00:00,283.0947,19.1,12.25,47.84626,-54.09684
2023-08-27 09:29:00+00:00,278.4881,19.1,12.25,47.84626,-54.09684
2023-08-27 09:39:00+00:00,277.7614,19.1,12.25,47.84626,-54.09684
2023-08-27 09:49:00+00:00,276.8914,19.1,12.25,47.84626,-54.09684
2023-08-27 09:59:00+00:00,274.043,19.1,12.25,47.84626,-54.09684
2023-08-27 10:09:00+00:00,270.5398,19.1,12.25,47.84626,-54.09684
2023-08-27 10:19:00+00:00,265.6581,19.1,12.25,47.84626,-54.09684
2023-08-27 10:29:00+00:00,258.5447,19.1,12.25,47.84626,-54.09684
2023-08-27 10:39:00+00:00,255.6264,19.1,12.25,47.84626,-54.09684
2023-08-27 10:49:00+00:00,253.8214,19.1,12.25,47.84626,-54.09684
2023-08-27 10:59:00+00:00,247.8298,19.1,12.25,47.84626,-54.09684
2023-08-27 11:09:00+00:00,243.2431,19.1,12.25,47.84626,-54.09684
2023-08-27 11:19:00+00:00,241.8381,19.1,12.33,47.84626,-54.09684
2023-08-27 11:29:00+00:00,233.5781,19.1,12.33,47.84626,-54.09684
2023-08-27 11:39:00+00:00,224.1898,19.15,12.33,47.84626,-54.09684
2023-08-27 11:49:00+00:00,223.5348,19.15,12.33,47.84626,-54.09684
2023-08-27 11:59:00+00:00,224.0064,19.1,12.33,47.84626,-54.09684
2023-08-27 12:09:00+00:00,220.3647,19.1,12.33,47.84626,-54.09684
2023-08-27 12:19:01+00:00,218.1848,19.13,12.33,47.84626,-54.09684
2023-08-27 12:29:01+00:00,219.6181,19.19,12.33,47.84626,-54.09684
2023-08-27 12:39:01+00:00,219.1014,19.19,12.33,47.84626,-54.09684
2023-08-27 12:49:01+00:00,217.3214,19.19,12.33,47.84626,-54.09684
2023-08-27 12:59:01+00:00,218.0431,19.2,12.33,47.84626,-54.09684
2023-08-27 13:09:01+00:00,220.8598,19.2,12.33,47.84626,-54.09684
2023-08-27 13:19:00+00:00,219.7248,19.2,12.41,47.84626,-54.09684
2023-08-27 13:29:00+00:00,214.3314,19.2,12.41,47.84626,-54.09684
2023-08-27 13:39:00+00:00,211.4315,19.23,12.41,47.84626,-54.09684
2023-08-27 13:49:00+00:00,213.0464,19.29,12.41,47.84626,-54.09684
2023-08-27 13:59:00+00:00,211.4565,19.29,12.41,47.84626,-54.09684
2023-08-27 14:09:00+00:00,210.2714,19.3,12.41,47.84626,-54.09684
2023-08-27 14:19:00+00:00,210.4581,19.3,12.57,47.84626,-54.09684
2023-08-27 14:29:00+00:00,208.3064,19.3,12.57,47.84626,-54.09684
2023-08-27 14:39:00+00:00,207.9265,19.3,12.57,47.84626,-54.09684
2023-08-27 14:49:00+00:00,209.2248,19.3,12.57,47.84626,-54.09684
2023-08-27 14:59:00+00:00,210.7297,19.28,12.57,47.84626,-54.09684
2023-08-27 15:09:00+00:00,214.1097,19.28,12.57,47.84626,-54.09684
2023-08-27 15:19:00+00:00,216.0265,19.27,12.41,47.84626,-54.09684
2023-08-27 15:29:00+00:00,214.1548,19.29,12.41,47.84626,-54.09684
2023-08-27 15:39:00+00:00,213.0998,19.3,12.41,47.84626,-54.09684
2023-08-27 15:49:00+00:00,217.4831,19.3,12.41,47.84626,-54.09684
2023-08-27 15:59:00+00:00,223.9414,19.3,12.41,47.84626,-54.09684
2023-08-27 16:09:00+00:00,225.1714,19.3,12.41,47.84626,-54.09684
2023-08-27 16:19:00+00:00,227.6064,19.3,12.57,47.84626,-54.09684
2023-08-27 16:29:00+00:00,233.0614,19.3,12.57,47.84626,-54.09684
2023-08-27 16:39:00+00:00,239.0747,19.3,12.57,47.84626,-54.09684
2023-08-27 16:49:00+00:00,245.0597,19.3,12.57,47.84626,-54.09684
2023-08-27 16:59:00+00:00,253.0131,19.3,12.57,47.84626,-54.09684
2023-08-27 17:09:00+00:00,263.8498,19.36,12.57,47.84626,-54.09684
2023-08-27 17:19:00+00:00,273.1297,19.38,12.49,47.84626,-54.09684
2023-08-27 17:29:00+00:00,277.3563,19.35,12.49,47.84626,-54.09684
2023-08-27 17:39:00+00:00,282.2947,19.3,12.49,47.84626,-54.09684
2023-08-27 17:49:00+00:00,288.6197,19.3,12.49,47.84626,-54.09684
2023-08-27 17:59:00+00:00,293.1547,19.3,12.49,47.84626,-54.09684
2023-08-27 18:09:00+00:00,298.0146,19.3,12.49,47.84626,-54.09684
2023-08-27 18:19:00+00:00,307.6414,19.3,12.41,47.84626,-54.09684
2023-08-27 18:29:00+00:00,316.528,19.3,12.41,47.84626,-54.09684
2023-08-27 18:39:00+00:00,319.3413,19.3,12.41,47.84626,-54.09684
2023-08-27 18:49:00+00:00,320.6097,19.3,12.41,47.84626,-54.09684
2023-08-27 18:59:00+00:00,323.8179,19.3,12.41,47.84626,-54.09684
2023-08-27 19:09:00+00:00,327.3013,19.3,12.41,47.84626,-54.09684
2023-08-27 19:19:00+00:00,327.6863,19.29,12.41,47.84626,-54.09684
2023-08-27 19:29:00+00:00,328.8997,19.29,12.41,47.84626,-54.09684
2023-08-27 19:39:00+00:00,333.5547,19.28,12.41,47.84626,-54.09684
2023-08-27 19:49:00+00:00,334.9396,19.29,12.41,47.84626,-54.09684
2023-08-27 19:59:00+00:00,332.8747,19.3,12.41,47.84626,-54.09684
2023-08-27 20:09:00+00:00,334.7963,19.3,12.41,47.84626,-54.09684
2023-08-27 20:19:01+00:00,341.3929,19.26,12.33,47.84626,-54.09684
2023-08-27 20:29:01+00:00,341.2562,19.27,12.33,47.84626,-54.09684
2023-08-27 20:39:01+00:00,341.0030000000001,19.29,12.33,47.84626,-54.09684
2023-08-27 20:49:01+00:00,345.3813,19.2,12.33,47.84626,-54.09684
2023-08-27 20:59:01+00:00,349.7112,19.2,12.33,47.84626,-54.09684
2023-08-27 21:09:01+00:00,349.0029,19.2,12.33,47.84626,-54.09684
2023-08-27 21:19:00+00:00,342.4113,19.23,12.33,47.84626,-54.09684
2023-08-27 21:29:00+00:00,341.3263,19.24,12.33,47.84626,-54.09684
2023-08-27 21:39:00+00:00,339.3163,19.21,12.33,47.84626,-54.09684
2023-08-27 21:49:00+00:00,329.983,19.2,12.33,47.84626,-54.09684
2023-08-27 21:59:00+00:00,322.488,19.2,12.33,47.84626,-54.09684
2023-08-27 22:09:00+00:00,325.1013,19.2,12.33,47.84626,-54.09684
2023-08-27 22:19:00+00:00,325.1763,19.2,12.25,47.84626,-54.09684
2023-08-27 22:29:00+00:00,316.9813,19.23,12.25,47.84626,-54.09684
2023-08-27 22:39:00+00:00,306.6664,19.28,12.25,47.84626,-54.09684
2023-08-27 22:49:00+00:00,308.0647,19.28,12.25,47.84626,-54.09684
2023-08-27 22:59:00+00:00,304.8047,19.29,12.25,47.84626,-54.09684
2023-08-27 23:09:00+00:00,296.4197,19.29,12.25,47.84626,-54.09684
2023-08-27 23:19:00+00:00,285.9597,19.29,12.25,47.84626,-54.09684
2023-08-27 23:29:00+00:00,283.328,19.29,12.25,47.84626,-54.09684
2023-08-27 23:39:00+00:00,277.7897,19.28,12.25,47.84626,-54.09684
2023-08-27 23:49:00+00:00,268.9898,19.28,12.25,47.84626,-54.09684
2023-08-27 23:59:00+00:00,261.8464,19.29,12.25,47.84626,-54.09684
